Airfield :
LOGIN :

Register | Disclaimer

   EN    FR    IT 

 










Legend :    VFR   Marginal VFR   IFR   Intensive IFR   Very Intensive IFR
Visi :
Ceiling :
>= 8 km
>= 3000ft
5 to 8 km
1000 to 3000 ft
1500m to 5 km
500 to 1000 ft
800 to 1500m
200 to 500 ft
< 800m
< 200 ft
Symbols :   Thunderstorms  Fog  Heavy snow  Heavy precipitations  Wind > 20 kt
SIGMETs :     Misc.  Thunderstorms  Icing  Turbulence  Mountain Waves  Volcanic Ashes







- Airport Elevation : 333 ft


LIPL - Ghedi Brescia (Mil)

CURRENT METAR :
  • 261155Z /////KT CAVOK 25/09 Q1018 RMK SKC VIS MIN 9999 WIND THR31 14004KT BLU

EXPIRED METARs :
  • 261055Z /////KT CAVOK 25/10 Q1019 RMK FEW FEW090 VIS MIN 9999 WIND THR31 31005KT BLU
  • 260955Z /////KT CAVOK 24/09 Q1019 RMK FEW FEW090 VIS MIN 9999 WIND THR31 12006KT BLU

TAF TAF LIPL
Valid from the 26 at 09:00 until the 26 at 18:00 UTC


260800Z 2609/2618 09010KT CAVOK
No reported NOTAMs for that airfield.



MET'MAP, your aeronautical weather chart ! - Copyright ORBIFLY December 2007 - Disclaimer

ORBIFLY MET'MAP TEAM :

Programming & Development : Alexandra Zaïnal
Concept & Development : Baudouin d'Aumeries
Co-Development & Prog : Marc-Olivier Méhu
Technical & hardware support : Manuel Goepfert

Contact : metmap@orbifly.com




SOURCES & CREDITS :

   NOAA